Location: Bletchingley
(51.2333°N, 0.1000°W)
Time: 04:59:45
(UTC+00:00)

Cosmos 1975 - Pass Details

Date: 18 September 2020
Orbit: 541 x 562 km, 82.5° (Epoch: 20 October)

Event Time Altitude Azimuth Distance (km) Brightness Sun altitude
Rises 18:44:39 0° 183° (S) 2,744 6.3 -6.7°
Reaches altitude 10° 18:46:49 10° 182° (S) 1,852 5.4 -7.0°
Maximum altitude 18:50:53 73° 98° (E) 594 2.8 -7.6°
Drops below altitude 10° 18:54:59 10° 14° (NNE) 1,862 5.5 -8.3°
Sets 18:57:10 0° 12° (NNE) 2,760 6.4 -8.6°
